datetime,delta storage
2006-10-02,-1590.0
2006-10-03,-1550.0
2006-10-04,-1450.0
2006-10-05,-1140.0
2006-10-06,-1450.0
2006-10-07,-890.0
2006-10-08,-950.0
2006-10-09,690.0
2006-10-10,510.0
2006-10-11,260.0
2006-10-12,190.0
2006-10-13,190.0
2006-10-14,130.0
2006-10-15,530.0
2006-10-16,130.0
2006-10-17,60.0
2006-10-18,330.0
2006-10-19,0.0
2006-10-20,70.0
2006-10-21,70.0
2006-10-22,130.0
2006-10-23,70.0
2006-10-24,200.0
2006-10-25,130.0
2006-10-26,200.0
2006-10-27,0.0
2006-10-28,0.0
2006-10-29,70.0
2006-10-30,70.0
2006-10-31,60.0
2006-11-01,0.0
2006-11-02,0.0
2006-11-03,0.0
2006-11-04,0.0
2006-11-05,70.0
2006-11-06,70.0
2006-11-07,70.0
2006-11-08,60.0
2006-11-09,140.0
2006-11-10,0.0
2006-11-11,70.0
2006-11-12,130.0
2006-11-13,0.0
2006-11-14,140.0
2006-11-15,70.0
2006-11-16,0.0
2006-11-17,0.0
2006-11-18,70.0
2006-11-19,140.0
2006-11-20,0.0
2006-11-21,0.0
2006-11-22,130.0
2006-11-23,70.0
2006-11-24,0.0
2006-11-25,70.0
2006-11-26,70.0
2006-11-27,0.0
2006-11-28,70.0
2006-11-29,0.0
2006-11-30,70.0
2006-12-01,70.0
2006-12-02,280.0
2006-12-03,-70.0
2006-12-04,0.0
2006-12-05,70.0
2006-12-06,70.0
2006-12-07,0.0
2006-12-08,70.0
2006-12-09,70.0
2006-12-10,70.0
2006-12-11,210.0
2006-12-12,0.0
2006-12-13,0.0
2006-12-14,70.0
2006-12-15,70.0
2006-12-16,0.0
2006-12-17,70.0
2006-12-18,210.0
2006-12-19,140.0
2006-12-20,0.0
2006-12-21,140.0
2006-12-22,150.0
2006-12-23,70.0
2006-12-24,70.0
2006-12-25,0.0
2006-12-26,0.0
2006-12-27,70.0
2006-12-28,70.0
2006-12-29,140.0
2006-12-30,0.0
2006-12-31,80.0
2007-01-01,140.0
2007-01-02,140.0
2007-01-03,0.0
2007-01-04,0.0
2007-01-05,220.0
2007-01-06,150.0
2007-01-07,0.0
2007-01-08,70.0
2007-01-09,0.0
2007-01-10,-70.0
2007-01-11,70.0
2007-01-12,70.0
2007-01-13,0.0
2007-01-14,70.0
2007-01-15,0.0
2007-01-16,80.0
2007-01-17,70.0
2007-01-18,0.0
2007-01-19,70.0
2007-01-20,80.0
2007-01-21,140.0
2007-01-22,370.0
2007-01-23,0.0
2007-01-24,70.0
2007-01-25,0.0
2007-01-26,80.0
2007-01-27,0.0
2007-01-28,70.0
2007-01-29,80.0
2007-01-30,70.0
2007-01-31,70.0
2007-02-01,80.0
2007-02-02,220.0
2007-02-03,0.0
2007-02-04,0.0
2007-02-05,80.0
2007-02-06,0.0
2007-02-07,0.0
2007-02-08,70.0
2007-02-09,0.0
2007-02-10,80.0
2007-02-11,70.0
2007-02-12,70.0
2007-02-13,80.0
2007-02-14,70.0
2007-02-15,80.0
2007-02-16,0.0
2007-02-17,0.0
2007-02-18,0.0
2007-02-19,0.0
2007-02-20,0.0
2007-02-21,0.0
2007-02-22,80.0
2007-02-23,150.0
2007-02-24,150.0
2007-02-25,-150.0
2007-02-26,70.0
2007-02-27,0.0
2007-02-28,80.0
2007-03-01,0.0
2007-03-02,220.0
2007-03-03,-70.0
2007-03-04,0.0
2007-03-05,70.0
2007-03-06,80.0
2007-03-07,-830.0
2007-03-08,-2140.0
2007-03-09,-1580.0
2007-03-10,-2500.0
2007-03-11,-1270.0
2007-03-12,-1250.0
2007-03-13,-640.0
2007-03-14,-830.0
2007-03-15,-1240.0
2007-03-16,-1160.0
2007-03-17,-1000.0
2007-03-18,-350.0
2007-03-19,-2140.0
2007-03-20,-1990.0
2007-03-21,-2110.0
2007-03-22,-1880.0
2007-03-23,-1620.0
2007-03-24,-760.0
2007-03-25,-970.0
2007-03-26,-520.0
2007-03-27,-310.0
2007-03-28,-350.0
2007-03-29,-590.0
2007-03-30,-210.0
2007-03-31,420.0
2007-04-01,470.0
2007-04-02,570.0
2007-04-03,1110.0
2007-04-04,1140.0
2007-04-05,1180.0
2007-04-06,2620.0
2007-04-07,1600.0
2007-04-08,1650.0
2007-04-09,1720.0
2007-04-10,1790.0
2007-04-11,1500.0
2007-04-12,1560.0
2007-04-13,1080.0
2007-04-14,1640.0
2007-04-15,1760.0
2007-04-16,2740.0
2007-04-17,3010.0
2007-04-18,2060.0
2007-04-19,1020.0
2007-04-20,950.0
2007-04-21,970.0
2007-04-22,970.0
2007-04-23,1620.0
2007-04-24,1650.0
2007-04-25,600.0
2007-04-26,610.0
2007-04-27,960.0
2007-04-28,1060.0
2007-04-29,1160.0
2007-04-30,1180.0
2007-05-01,1650.0
2007-05-02,1590.0
2007-05-03,100.0
2007-05-04,380.0
2007-05-05,1040.0
2007-05-06,580.0
2007-05-07,480.0
2007-05-08,780.0
2007-05-09,100.0
2007-05-10,0.0
2007-05-11,-300.0
2007-05-12,0.0
2007-05-13,100.0
2007-05-14,0.0
2007-05-15,-390.0
2007-05-16,200.0
2007-05-17,480.0
2007-05-18,300.0
2007-05-19,390.0
2007-05-20,200.0
2007-05-21,1480.0
2007-05-22,4770.0
2007-05-23,1770.0
2007-05-24,-730.0
2007-05-25,-420.0
2007-05-26,320.0
2007-05-27,-1760.0
2007-05-28,-1740.0
2007-05-29,-1710.0
2007-05-30,-1690.0
2007-05-31,-880.0
2007-06-01,-1560.0
2007-06-02,-1530.0
2007-06-03,-1320.0
2007-06-04,-1950.0
2007-06-05,-1640.0
2007-06-06,-1880.0
2007-06-07,-1220.0
2007-06-08,-1130.0
2007-06-09,-850.0
2007-06-10,-850.0
2007-06-11,-840.0
2007-06-12,-830.0
2007-06-13,-820.0
2007-06-14,-810.0
2007-06-15,-880.0
2007-06-16,-160.0
2007-06-17,-150.0
2007-06-18,-320.0
2007-06-19,-320.0
2007-06-20,-700.0
2007-06-21,-850.0
2007-06-22,-530.0
2007-06-23,-230.0
2007-06-24,-380.0
2007-06-25,-1050.0
2007-06-26,-1100.0
2007-06-27,-1010.0
2007-06-28,-2260.0
2007-06-29,-1370.0
2007-06-30,480.0
2007-07-01,480.0
2007-07-02,690.0
2007-07-03,840.0
2007-07-04,1500.0
2007-07-05,650.0
2007-07-06,880.0
2007-07-07,890.0
2007-07-08,990.0
2007-07-09,990.0
2007-07-10,1570.0
2007-07-11,950.0
2007-07-12,320.0
2007-07-13,730.0
2007-07-14,1150.0
2007-07-15,1330.0
2007-07-16,1100.0
2007-07-17,1810.0
2007-07-18,790.0
2007-07-19,440.0
2007-07-20,-180.0
2007-07-21,180.0
2007-07-22,-90.0
2007-07-23,-90.0
2007-07-24,0.0
2007-07-25,-180.0
2007-07-26,360.0
2007-07-27,-360.0
2007-07-28,90.0
2007-07-29,270.0
2007-07-30,170.0
2007-07-31,1070.0
2007-08-01,450.0
2007-08-02,900.0
2007-08-03,920.0
2007-08-04,920.0
2007-08-05,930.0
2007-08-06,940.0
2007-08-07,860.0
2007-08-08,190.0
2007-08-09,-190.0
2007-08-10,-1420.0
2007-08-11,-1400.0
2007-08-12,-460.0
2007-08-13,-1650.0
2007-08-14,-1440.0
2007-08-15,-1580.0
2007-08-16,-1990.0
2007-08-17,-1270.0
2007-08-18,-1090.0
2007-08-19,-1320.0
2007-08-20,-1050.0
2007-08-21,-2130.0
2007-08-22,-2070.0
2007-08-23,-2160.0
2007-08-24,-1160.0
2007-08-25,-1410.0
2007-08-26,-1530.0
2007-08-27,-1280.0
2007-08-28,-1840.0
2007-08-29,-1400.0
2007-08-30,-1180.0
2007-08-31,-1380.0
2007-09-01,-1230.0
2007-09-02,-1190.0
2007-09-03,-1110.0
2007-09-04,-1070.0
2007-09-05,-1680.0
2007-09-06,-1070.0
2007-09-07,-1190.0
2007-09-08,-1350.0
2007-09-09,-1400.0
2007-09-10,-680.0
2007-09-11,-670.0
2007-09-12,-790.0
2007-09-13,-470.0
2007-09-14,-470.0
2007-09-15,-250.0
2007-09-16,-370.0
2007-09-17,-370.0
2007-09-18,-120.0
2007-09-19,0.0
2007-09-20,40.0
2007-09-21,0.0
2007-09-22,-40.0
2007-09-23,-50.0
2007-09-24,0.0
2007-09-25,-520.0
2007-09-26,-320.0
2007-09-27,-320.0
2007-09-28,-190.0
2007-09-29,-40.0
2007-09-30,40.0
2007-10-01,-40.0
2007-10-02,-120.0
2007-10-03,-350.0
2007-10-04,-350.0
2007-10-05,-230.0
2007-10-06,40.0
2007-10-07,80.0
2007-10-08,110.0
2007-10-09,0.0
2007-10-10,-110.0
2007-10-11,-120.0
2007-10-12,-340.0
2007-10-13,-490.0
2007-10-14,-480.0
2007-10-15,-360.0
2007-10-16,-110.0
2007-10-17,990.0
2007-10-18,1250.0
2007-10-19,1060.0
2007-10-20,600.0
2007-10-21,730.0
2007-10-22,840.0
2007-10-23,890.0
2007-10-24,1060.0
2007-10-25,90.0
2007-10-26,-360.0
2007-10-27,0.0
2007-10-28,0.0
2007-10-29,50.0
2007-10-30,40.0
2007-10-31,90.0
2007-11-01,40.0
2007-11-02,90.0
2007-11-03,90.0
2007-11-04,0.0
2007-11-05,50.0
2007-11-06,130.0
2007-11-07,50.0
2007-11-08,40.0
2007-11-09,50.0
2007-11-10,40.0
2007-11-11,90.0
2007-11-12,50.0
2007-11-13,90.0
2007-11-14,40.0
2007-11-15,0.0
2007-11-16,50.0
2007-11-17,50.0
2007-11-18,40.0
2007-11-19,50.0
2007-11-20,40.0
2007-11-21,190.0
2007-11-22,0.0
2007-11-23,0.0
2007-11-24,40.0
2007-11-25,50.0
2007-11-26,0.0
2007-11-27,50.0
2007-11-28,130.0
2007-11-29,0.0
2007-11-30,0.0
2007-12-01,190.0
2007-12-02,90.0
2007-12-03,50.0
2007-12-04,50.0
2007-12-05,0.0
2007-12-06,40.0
2007-12-07,50.0
2007-12-08,0.0
2007-12-09,140.0
2007-12-10,140.0
2007-12-11,50.0
2007-12-12,50.0
2007-12-13,90.0
2007-12-14,150.0
2007-12-15,0.0
2007-12-16,40.0
2007-12-17,0.0
2007-12-18,0.0
2007-12-19,50.0
2007-12-20,0.0
2007-12-21,140.0
2007-12-22,0.0
2007-12-23,0.0
2007-12-24,50.0
2007-12-25,0.0
2007-12-26,50.0
2007-12-27,100.0
2007-12-28,0.0
2007-12-29,0.0
2007-12-30,90.0
2007-12-31,0.0
2008-01-01,-468.0
2008-01-02,0.0
2008-01-03,0.0
2008-01-04,48.0
2008-01-05,47.0
2008-01-06,0.0
2008-01-07,95.0
2008-01-08,94.0
2008-01-09,95.0
2008-01-10,0.0
2008-01-11,96.0
2008-01-12,95.0
2008-01-13,48.0
2008-01-14,48.0
2008-01-15,192.0
2008-01-16,96.0
2008-01-17,0.0
2008-01-18,0.0
2008-01-19,0.0
2008-01-20,0.0
2008-01-21,49.0
2008-01-22,48.0
2008-01-23,97.0
2008-01-24,48.0
2008-01-25,146.0
2008-01-26,48.0
2008-01-27,49.0
2008-01-28,49.0
2008-01-29,196.0
2008-01-30,246.0
2008-01-31,0.0
2008-02-01,0.0
2008-02-02,49.0
2008-02-03,0.0
2008-02-04,148.0
2008-02-05,50.0
2008-02-06,0.0
2008-02-07,49.0
2008-02-08,100.0
2008-02-09,50.0
2008-02-10,0.0
2008-02-11,199.0
2008-02-12,0.0
2008-02-13,0.0
2008-02-14,0.0
2008-02-15,201.0
2008-02-16,50.0
2008-02-17,151.0
2008-02-18,0.0
2008-02-19,0.0
2008-02-20,50.0
2008-02-21,51.0
2008-02-22,1281.0
2008-02-23,1905.0
2008-02-24,1772.0
2008-02-25,1732.0
2008-02-26,1802.0
2008-02-27,1680.0
2008-02-28,1868.0
2008-02-29,1527.0
2008-03-01,1360.0
2008-03-02,1603.0
2008-03-03,710.0
2008-03-04,862.0
2008-03-05,654.0
2008-03-06,735.0
2008-03-07,746.0
2008-03-08,830.0
2008-03-09,765.0
2008-03-10,231.0
2008-03-11,387.0
2008-03-12,-232.0
2008-03-13,-386.0
2008-03-14,-307.0
2008-03-15,-458.0
2008-03-16,-680.0
2008-03-17,-75.0
2008-03-18,-672.0
2008-03-19,-518.0
2008-03-20,-439.0
2008-03-21,-364.0
2008-03-22,-650.0
2008-03-23,-856.0
2008-03-24,-915.0
2008-03-25,-971.0
2008-03-26,-1293.0
2008-03-27,-1068.0
2008-03-28,-788.0
2008-03-29,-777.0
2008-03-30,-829.0
2008-03-31,64.0
2008-04-01,765.0
2008-04-02,777.0
2008-04-03,1120.0
2008-04-04,1141.0
2008-04-05,1929.0
2008-04-06,1917.0
2008-04-07,1237.0
2008-04-08,-293.0
2008-04-09,-73.0
2008-04-10,366.0
2008-04-11,222.0
2008-04-12,73.0
2008-04-13,74.0
2008-04-14,0.0
2008-04-15,-147.0
2008-04-16,-74.0
2008-04-17,296.0
2008-04-18,297.0
2008-04-19,449.0
2008-04-20,603.0
2008-04-21,380.0
2008-04-22,230.0
2008-04-23,76.0
2008-04-24,0.0
2008-04-25,154.0
2008-04-26,1007.0
2008-04-27,-389.0
2008-04-28,233.0
2008-04-29,391.0
2008-04-30,235.0
2008-05-01,118.0
2008-05-02,119.0
2008-05-03,79.0
2008-05-04,158.0
2008-05-05,158.0
2008-05-06,80.0
2008-05-07,-317.0
2008-05-08,-552.0
2008-05-09,-313.0
2008-05-10,0.0
2008-05-11,-78.0
2008-05-12,-466.0
2008-05-13,-232.0
2008-05-14,-308.0
2008-05-15,-77.0
2008-05-16,-382.0
2008-05-17,76.0
2008-05-18,-76.0
2008-05-19,0.0
2008-05-20,0.0
2008-05-21,-682.0
2008-05-22,-225.0
2008-05-23,-150.0
2008-05-24,-150.0
2008-05-25,-224.0
2008-05-26,-222.0
2008-05-27,-149.0
2008-05-28,-295.0
2008-05-29,-512.0
2008-05-30,-291.0
2008-05-31,218.0
2008-06-01,219.0
2008-06-02,366.0
2008-06-03,369.0
2008-06-04,-74.0
2008-06-05,895.0
2008-06-06,1136.0
2008-06-07,1002.0
2008-06-08,1019.0
2008-06-09,714.0
2008-06-10,722.0
2008-06-11,404.0
2008-06-12,488.0
2008-06-13,-407.0
2008-06-14,-566.0
2008-06-15,-401.0
2008-06-16,-875.0
2008-06-17,-1175.0
2008-06-18,-387.0
2008-06-19,-308.0
2008-06-20,154.0
2008-06-21,308.0
2008-06-22,310.0
2008-06-23,468.0
2008-06-24,630.0
2008-06-25,955.0
2008-06-26,1050.0
2008-06-27,818.0
2008-06-28,1078.0
2008-06-29,2549.0
2008-06-30,-1455.0
2008-07-01,938.0
2008-07-02,431.0
2008-07-03,1129.0
2008-07-04,-87.0
2008-07-05,526.0
2008-07-06,441.0
2008-07-07,621.0
2008-07-08,1076.0
2008-07-09,1639.0
2008-07-10,92.0
2008-07-11,1018.0
2008-07-12,1124.0
2008-07-13,188.0
2008-07-14,-377.0
2008-07-15,424.0
2008-07-16,-752.0
2008-07-17,-746.0
2008-07-18,-1383.0
2008-07-19,735.0
2008-07-20,741.0
2008-07-21,747.0
2008-07-22,-1026.0
2008-07-23,-1243.0
2008-07-24,-1631.0
2008-07-25,-626.0
2008-07-26,986.0
2008-07-27,997.0
2008-07-28,2215.0
2008-07-29,468.0
2008-07-30,-841.0
2008-07-31,-926.0
2008-08-01,-916.0
2008-08-02,-273.0
2008-08-03,-1263.0
2008-08-04,-1245.0
2008-08-05,-1226.0
2008-08-06,-1720.0
2008-08-07,-1682.0
2008-08-08,-1237.0
2008-08-09,-1216.0
2008-08-10,-799.0
2008-08-11,-789.0
2008-08-12,-1550.0
2008-08-13,-648.0
2008-08-14,228.0
2008-08-15,190.0
2008-08-16,-266.0
2008-08-17,1383.0
2008-08-18,1215.0
2008-08-19,956.0
2008-08-20,1214.0
2008-08-21,987.0
2008-08-22,1126.0
2008-08-23,1016.0
2008-08-24,1072.0
2008-08-25,1087.0
2008-08-26,-654.0
2008-08-27,-778.0
2008-08-28,-214.0
2008-08-29,0.0
2008-08-30,0.0
2008-08-31,645.0
2008-09-01,1440.0
2008-09-02,-220.0
2008-09-03,-394.0
2008-09-04,-392.0
2008-09-05,-520.0
2008-09-06,-1072.0
2008-09-07,-1142.0
2008-09-08,-1207.0
2008-09-09,290.0
2008-09-10,875.0
2008-09-11,-42.0
2008-09-12,-209.0
2008-09-13,-666.0
2008-09-14,-454.0
2008-09-15,-574.0
2008-09-16,-569.0
2008-09-17,-965.0
2008-09-18,-1501.0
2008-09-19,-1505.0
2008-09-20,-1691.0
2008-09-21,-1645.0
2008-09-22,-1813.0
2008-09-23,-2204.0
2008-09-24,-2451.0
2008-09-25,-2345.0
2008-09-26,-2211.0
2008-09-27,-2109.0
2008-09-28,-2113.0
2008-09-29,-2013.0
2008-09-30,-2032.0
2008-10-01,-1042.0
2008-10-02,895.0
2008-10-03,1340.0
2008-10-04,967.0
2008-10-05,1196.0
2008-10-06,0.0
2008-10-07,26.0
2008-10-08,-367.0
2008-10-09,-338.0
2008-10-10,-568.0
2008-10-11,-966.0
2008-10-12,-971.0
2008-10-13,-1286.0
2008-10-14,-1732.0
2008-10-15,-1986.0
2008-10-16,-1549.0
2008-10-17,-859.0
2008-10-18,-460.0
2008-10-19,-316.0
2008-10-20,-256.0
2008-10-21,-312.0
2008-10-22,-252.0
2008-10-23,-155.0
2008-10-24,116.0
2008-10-25,116.0
2008-10-26,78.0
2008-10-27,77.0
2008-10-28,117.0
2008-10-29,117.0
2008-10-30,137.0
2008-10-31,99.0
2008-11-01,78.0
2008-11-02,99.0
2008-11-03,98.0
2008-11-04,60.0
2008-11-05,278.0
2008-11-06,0.0
2008-11-07,0.0
2008-11-08,80.0
2008-11-09,80.0
2008-11-10,81.0
2008-11-11,101.0
2008-11-12,101.0
2008-11-13,81.0
2008-11-14,102.0
2008-11-15,41.0
2008-11-16,81.0
2008-11-17,82.0
2008-11-18,82.0
2008-11-19,83.0
2008-11-20,103.0
2008-11-21,42.0
2008-11-22,83.0
2008-11-23,104.0
2008-11-24,41.0
2008-11-25,42.0
2008-11-26,189.0
2008-11-27,126.0
2008-11-28,85.0
2008-11-29,42.0
2008-11-30,21.0
2008-12-01,85.0
2008-12-02,43.0
2008-12-03,85.0
2008-12-04,43.0
2008-12-05,43.0
2008-12-06,107.0
2008-12-07,43.0
2008-12-08,86.0
2008-12-09,86.0
2008-12-10,65.0
2008-12-11,65.0
2008-12-12,21.0
2008-12-13,44.0
2008-12-14,108.0
2008-12-15,0.0
2008-12-16,88.0
2008-12-17,109.0
2008-12-18,110.0
2008-12-19,44.0
2008-12-20,44.0
2008-12-21,44.0
2008-12-22,66.0
2008-12-23,44.0
2008-12-24,44.0
2008-12-25,-44.0
2008-12-26,333.0
2008-12-27,-111.0
2008-12-28,111.0
2008-12-29,45.0
2008-12-30,112.0
2008-12-31,45.0
2009-01-01,50.0
2009-01-02,60.0
2009-01-03,50.0
2009-01-04,90.0
2009-01-05,40.0
2009-01-06,90.0
2009-01-07,120.0
2009-01-08,0.0
2009-01-09,230.0
2009-01-10,-140.0
2009-01-11,180.0
2009-01-12,0.0
2009-01-13,20.0
2009-01-14,50.0
2009-01-15,50.0
2009-01-16,60.0
2009-01-17,70.0
2009-01-18,49.0
2009-01-19,70.0
2009-01-20,51.0
2009-01-21,40.0
2009-01-22,70.0
2009-01-23,800.0
2009-01-24,50.0
2009-01-25,20.0
2009-01-26,50.0
2009-01-27,120.0
2009-01-28,40.0
2009-01-29,30.0
2009-01-30,40.0
2009-01-31,50.0
2009-02-01,74.0
2009-02-02,48.0
2009-02-03,24.0
2009-02-04,48.0
2009-02-05,48.0
2009-02-06,24.0
2009-02-07,72.0
2009-02-08,24.0
2009-02-09,-48.0
2009-02-10,145.0
2009-02-11,24.0
2009-02-12,97.0
2009-02-13,-25.0
2009-02-14,97.0
2009-02-15,25.0
2009-02-16,0.0
2009-02-17,-25.0
2009-02-18,-97.0
2009-02-19,2285.0
2009-02-20,2479.0
2009-02-21,2376.0
2009-02-22,2487.0
2009-02-23,2532.0
2009-02-24,2263.0
2009-02-25,1606.0
2009-02-26,1442.0
2009-02-27,1015.0
2009-02-28,639.0
2009-03-01,860.0
2009-03-02,800.0
2009-03-03,811.0
2009-03-04,747.0
2009-03-05,947.0
2009-03-06,884.0
2009-03-07,857.0
2009-03-08,394.0
2009-03-09,475.0
2009-03-10,239.0
2009-03-11,-477.0
2009-03-12,-356.0
2009-03-13,-510.0
2009-03-14,-1506.0
2009-03-15,-1172.0
2009-03-16,-1333.0
2009-03-17,-1518.0
2009-03-18,-1483.0
2009-03-19,-1004.0
2009-03-20,-649.0
2009-03-21,0.0
2009-03-22,0.0
2009-03-23,-3654.0
2009-03-24,-1196.0
2009-03-25,-279.0
2009-03-26,591.0
2009-03-27,472.0
2009-03-28,957.0
2009-03-29,875.0
2009-03-30,1290.0
2009-03-31,-33.0
2009-04-01,-433.0
2009-04-02,-987.0
2009-04-03,-1065.0
2009-04-04,288.0
2009-04-05,-384.0
2009-04-06,-318.0
2009-04-07,-158.0
2009-04-08,158.0
2009-04-09,286.0
2009-04-10,64.0
2009-04-11,64.0
2009-04-12,32.0
2009-04-13,321.0
2009-04-14,941.0
2009-04-15,824.0
2009-04-16,1073.0
2009-04-17,1058.0
2009-04-18,1322.0
2009-04-19,1099.0
2009-04-20,900.0
2009-04-21,803.0
2009-04-22,814.0
2009-04-23,1281.0
2009-04-24,1308.0
2009-04-25,1296.0
2009-04-26,1241.0
2009-04-27,812.0
2009-04-28,0.0
2009-04-29,328.0
2009-04-30,535.0
2009-05-01,415.0
2009-05-02,417.0
2009-05-03,377.0
2009-05-04,211.0
2009-05-05,42.0
2009-05-06,-253.0
2009-05-07,-419.0
2009-05-08,-292.0
2009-05-09,-166.0
2009-05-10,-125.0
2009-05-11,-454.0
2009-05-12,-575.0
2009-05-13,-611.0
2009-05-14,-645.0
2009-05-15,-520.0
2009-05-16,-516.0
2009-05-17,-473.0
2009-05-18,-235.0
2009-05-19,39.0
2009-05-20,79.0
2009-05-21,-39.0
2009-05-22,946.0
2009-05-23,1446.0
2009-05-24,1475.0
2009-05-25,1591.0
2009-05-26,1151.0
2009-05-27,517.0
2009-05-28,477.0
2009-05-29,699.0
2009-05-30,749.0
2009-05-31,980.0
2009-06-01,359.0
2009-06-02,180.0
2009-06-03,-135.0
2009-06-04,-90.0
2009-06-05,-180.0
2009-06-06,-179.0
2009-06-07,-268.0
2009-06-08,-445.0
2009-06-09,-751.0
2009-06-10,-875.0
2009-06-11,-348.0
2009-06-12,566.0
2009-06-13,437.0
2009-06-14,396.0
2009-06-15,398.0
2009-06-16,177.0
2009-06-17,-133.0
2009-06-18,-221.0
2009-06-19,-89.0
2009-06-20,44.0
2009-06-21,45.0
2009-06-22,-221.0
2009-06-23,44.0
2009-06-24,487.0
2009-06-25,757.0
2009-06-26,1081.0
2009-06-27,546.0
2009-06-28,1378.0
2009-06-29,1072.0
2009-06-30,1226.0
2009-07-01,1338.0
2009-07-02,1747.0
2009-07-03,2474.0
2009-07-04,3043.0
2009-07-05,1551.0
2009-07-06,993.0
2009-07-07,-52.0
2009-07-08,-576.0
2009-07-09,-365.0
2009-07-10,-1140.0
2009-07-11,-1180.0
2009-07-12,-1117.0
2009-07-13,-1307.0
2009-07-14,-1735.0
2009-07-15,-1998.0
2009-07-16,-1723.0
2009-07-17,-1553.0
2009-07-18,-1481.0
2009-07-19,-1232.0
2009-07-20,-1614.0
2009-07-21,-1846.0
2009-07-22,-1420.0
2009-07-23,-341.0
2009-07-24,-127.0
2009-07-25,255.0
2009-07-26,-85.0
2009-07-27,42.0
2009-07-28,512.0
2009-07-29,0.0
2009-07-30,343.0
2009-07-31,86.0
2009-08-01,-43.0
2009-08-02,173.0
2009-08-03,-473.0
2009-08-04,-1064.0
2009-08-05,-464.0
2009-08-06,42.0
2009-08-07,-210.0
2009-08-08,-209.0
2009-08-09,-334.0
2009-08-10,-249.0
2009-08-11,-165.0
2009-08-12,-331.0
2009-08-13,207.0
2009-08-14,-124.0
2009-08-15,-206.0
2009-08-16,-246.0
2009-08-17,-205.0
2009-08-18,-245.0
2009-08-19,-122.0
2009-08-20,-566.0
2009-08-21,-562.0
2009-08-22,-359.0
2009-08-23,-199.0
2009-08-24,-867.0
2009-08-25,-1546.0
2009-08-26,-1173.0
2009-08-27,-1187.0
2009-08-28,-2305.0
2009-08-29,-2600.0
2009-08-30,-135.0
2009-08-31,0.0
2009-09-01,-7341.0
2009-09-02,-2569.0
2009-09-03,-2050.0
2009-09-04,-1606.0
2009-09-05,-1108.0
2009-09-06,-1349.0
2009-09-07,-1238.0
2009-09-08,-467.0
2009-09-09,24.0
2009-09-10,-185.0
2009-09-11,675.0
2009-09-12,401.0
2009-09-13,238.0
2009-09-14,215.0
2009-09-15,313.0
2009-09-16,485.0
2009-09-17,714.0
2009-09-18,599.0
2009-09-19,990.0
2009-09-20,594.0
2009-09-21,864.0
2009-09-22,185.0
2009-09-23,641.0
2009-09-24,734.0
2009-09-25,748.0
2009-09-26,706.0
2009-09-27,688.0
2009-09-28,611.0
2009-09-29,591.0
2009-09-30,208.0
2009-10-01,-622.0
2009-10-02,-817.0
2009-10-03,-858.0
2009-10-04,-869.0
2009-10-05,-687.0
2009-10-06,-568.0
2009-10-07,-480.0
2009-10-08,-448.0
2009-10-09,-757.0
2009-10-10,-898.0
2009-10-11,-882.0
2009-10-12,-889.0
2009-10-13,-196.0
2009-10-14,98.0
2009-10-15,147.0
2009-10-16,24.0
2009-10-17,49.0
2009-10-18,74.0
2009-10-19,74.0
2009-10-20,172.0
2009-10-21,124.0
2009-10-22,99.0
2009-10-23,50.0
2009-10-24,75.0
2009-10-25,224.0
2009-10-26,-150.0
2009-10-27,-50.0
2009-10-28,200.0
2009-10-29,125.0
2009-10-30,26.0
2009-10-31,50.0
2009-11-01,100.0
2009-11-02,126.0
2009-11-03,26.0
2009-11-04,1280.0
2009-11-05,26.0
2009-11-06,-2058.0
2009-11-07,75.0
2009-11-08,74.0
2009-11-09,100.0
2009-11-10,50.0
2009-11-11,50.0
2009-11-12,75.0
2009-11-13,51.0
2009-11-14,75.0
2009-11-15,176.0
2009-11-16,-75.0
2009-11-17,75.0
2009-11-18,51.0
2009-11-19,76.0
2009-11-20,51.0
2009-11-21,76.0
2009-11-22,76.0
2009-11-23,204.0
2009-11-24,-102.0
2009-11-25,102.0
2009-11-26,0.0
2009-11-27,76.0
2009-11-28,51.0
2009-11-29,283.0
2009-11-30,
2009-12-01,
2009-12-02,77.0
2009-12-03,
2009-12-04,
2009-12-05,
2009-12-06,
2009-12-07,0.0
2009-12-08,181.0
2009-12-09,79.0
2009-12-10,52.0
2009-12-11,78.0
2009-12-12,79.0
2009-12-13,52.0
2009-12-14,131.0
2009-12-15,53.0
2009-12-16,52.0
2009-12-17,79.0
2009-12-18,80.0
2009-12-19,26.0
2009-12-20,79.0
2009-12-21,80.0
2009-12-22,79.0
2009-12-23,107.0
2009-12-24,133.0
2009-12-25,
2009-12-26,
2009-12-27,54.0
2009-12-28,
2009-12-29,
2009-12-30,
2009-12-31,108.0
2010-01-01,54.0
2010-01-02,81.0
2010-01-03,81.0
2010-01-04,0.0
2010-01-05,82.0
2010-01-06,54.0
2010-01-07,0.0
2010-01-08,109.0
2010-01-09,82.0
2010-01-10,83.0
2010-01-11,55.0
2010-01-12,54.0
2010-01-13,56.0
2010-01-14,110.0
2010-01-15,0.0
2010-01-16,55.0
2010-01-17,83.0
2010-01-18,28.0
2010-01-19,56.0
2010-01-20,83.0
2010-01-21,56.0
2010-01-22,55.0
2010-01-23,112.0
2010-01-24,56.0
2010-01-25,28.0
2010-01-26,141.0
2010-01-27,
2010-01-28,
2010-01-29,
2010-01-30,
2010-01-31,
2010-02-01,
2010-02-02,
2010-02-03,
2010-02-04,
2010-02-05,1231.0
2010-02-06,1265.0
2010-02-07,1299.0
2010-02-08,1205.0
2010-02-09,1199.0
2010-02-10,1293.0
2010-02-11,1322.0
2010-02-12,1246.0
2010-02-13,1236.0
2010-02-14,1259.0
2010-02-15,1175.0
2010-02-16,1199.0
2010-02-17,1223.0
2010-02-18,1247.0
2010-02-19,1111.0
2010-02-20,1251.0
2010-02-21,1233.0
2010-02-22,1974.0
2010-02-23,555.0
2010-02-24,1122.0
2010-02-25,1359.0
2010-02-26,1112.0
2010-02-27,1172.0
2010-02-28,1280.0
2010-03-01,1252.0
2010-03-02,1081.0
2010-03-03,853.0
2010-03-04,287.0
2010-03-05,575.0
2010-03-06,144.0
2010-03-07,145.0
2010-03-08,241.0
2010-03-09,-96.0
2010-03-10,-242.0
2010-03-11,-144.0
2010-03-12,-336.0
2010-03-13,-574.0
2010-03-14,-47.0
2010-03-15,-1137.0
2010-03-16,-1262.0
2010-03-17,-1107.0
2010-03-18,-366.0
2010-03-19,1195.0
2010-03-20,-185.0
2010-03-21,-873.0
2010-03-22,-775.0
2010-03-23,-722.0
2010-03-24,-761.0
2010-03-25,-533.0
2010-03-26,399.0
2010-03-27,134.0
2010-03-28,44.0
2010-03-29,-89.0
2010-03-30,-710.0
2010-03-31,-835.0
2010-04-01,-218.0
2010-04-02,175.0
2010-04-03,438.0
2010-04-04,485.0
2010-04-05,-177.0
2010-04-06,177.0
2010-04-07,-661.0
2010-04-08,0.0
2010-04-09,396.0
2010-04-10,619.0
2010-04-11,624.0
2010-04-12,538.0
2010-04-13,904.0
2010-04-14,
2010-04-15,
2010-04-16,2110.0
2010-04-17,1819.0
2010-04-18,2097.0
2010-04-19,1738.0
2010-04-20,1106.0
2010-04-21,608.0
2010-04-22,305.0
2010-04-23,358.0
2010-04-24,409.0
2010-04-25,462.0
2010-04-26,258.0
2010-04-27,0.0
2010-04-28,-360.0
2010-04-29,-257.0
2010-04-30,-1530.0
2010-05-01,-101.0
2010-05-02,0.0
2010-05-03,-51.0
2010-05-04,-202.0
2010-05-05,-453.0
2010-05-06,-402.0
2010-05-07,-400.0
2010-05-08,-448.0
2010-05-09,-497.0
2010-05-10,-494.0
2010-05-11,-834.0
2010-05-12,-1119.0
2010-05-13,-1202.0
2010-05-14,-1047.0
2010-05-15,-988.0
2010-05-16,-839.0
2010-05-17,-1014.0
2010-05-18,-822.0
2010-05-19,
2010-05-20,
2010-05-21,89.0
2010-05-22,313.0
2010-05-23,135.0
2010-05-24,
2010-05-25,
2010-05-26,-395.0
2010-05-27,-306.0
2010-05-28,262.0
2010-05-29,439.0
2010-05-30,176.0
2010-05-31,177.0
2010-06-01,44.0
2010-06-02,-309.0
2010-06-03,-658.0
2010-06-04,-697.0
2010-06-05,-647.0
2010-06-06,-727.0
2010-06-07,-973.0
2010-06-08,-711.0
2010-06-09,-42.0
2010-06-10,84.0
2010-06-11,125.0
2010-06-12,42.0
2010-06-13,167.0
2010-06-14,83.0
2010-06-15,-209.0
2010-06-16,
2010-06-17,
2010-06-18,459.0
2010-06-19,716.0
2010-06-20,595.0
2010-06-21,213.0
2010-06-22,343.0
2010-06-23,-214.0
2010-06-24,-852.0
2010-06-25,-717.0
2010-06-26,-710.0
2010-06-27,-620.0
2010-06-28,-698.0
2010-06-29,41.0
2010-06-30,739.0
2010-07-01,830.0
2010-07-02,1475.0
2010-07-03,1807.0
2010-07-04,1450.0
2010-07-05,936.0
2010-07-06,629.0
2010-07-07,271.0
2010-07-08,136.0
2010-07-09,91.0
2010-07-10,227.0
2010-07-11,502.0
2010-07-12,1013.0
2010-07-13,744.0
2010-07-14,-187.0
2010-07-15,-279.0
2010-07-16,-324.0
2010-07-17,-370.0
2010-07-18,-321.0
2010-07-19,-595.0
2010-07-20,-637.0
2010-07-21,-1079.0
2010-07-22,-535.0
2010-07-23,133.0
2010-07-24,491.0
2010-07-25,134.0
2010-07-26,3010.0
2010-07-27,-185.0
2010-07-28,-783.0
2010-07-29,-686.0
2010-07-30,-364.0
2010-07-31,364.0
2010-08-01,228.0
2010-08-02,137.0
2010-08-03,-137.0
2010-08-04,-637.0
2010-08-05,-722.0
2010-08-06,-939.0
2010-08-07,-1016.0
2010-08-08,-917.0